Location: Ferintosh
(52.7647°N, 112.9692°W)
Time: 19:47:32
(UTC+00:00)

Explorer 7 - Pass Details

Date: 23 May 2024
Orbit: 466 x 622 km, 50.3° (Epoch: 16 June)

Event Time Altitude Azimuth Distance (km) Brightness Sun altitude
Rises 09:30:12 0° 271° (W) 2,607 10.0 -11.9°
Reaches altitude 10° 09:32:22 10° 267° (W) 1,747 9.1 -11.8°
Maximum altitude 09:36:16 57° 188° (S) 634 6.8 -11.5°
Drops below altitude 10° 09:40:23 10° 110° (ESE) 1,843 9.6 -11.2°
Sets 09:42:43 0° 107° (ESE) 2,767 10.6 -11.0°
